STARLINK-31509 (59533 NORAD) Tracking and Keplerian Element Data

This shows tracking and keplerian element data for the satellite.

Feedback or suggestion? Click here.




ElementValue
Catalog59533
NameSTARLINK-31509
Epoch Orbit919
Epoch Day159.92869577
Epoch Year2024
RAAN2.9769
Inclination43.0077
Eccentricity0.00023
Argument of Perigee275.6457
Mean Anonmoly84.4138
Mean Motion15.40682635
Decay Rate-3.124E-05
L11 59533U 24073Y 24159.92869577 -.00003124 00000+0 -67583-4 0 9999
L22 59533 43.0077 2.9769 0002300 275.6457 84.4138 15.40682635 9199



Live tracking and technical data element details for STARLINK-31509 (NORAD 59533). STARLINK-31509 can be tracked NOW for your location showing map with azimuth and elevation plus other details from your city location.







IsCatalogInMostPopularTable: catalog: 59533, numindb: 13
Update: records affected: 1



GetName: 59533 STARLINK-31509

Hit Count: updated at: Fri, 14 Jun 2024 19:40:45 GMT